Regional Weather Roundup
Issued by NWS State College, PA

Home | Current Version | Previous Version | Graphics & Text | Print | Product List | Glossary Off
Versions: 1 2 3 4 5 6 7 8 9 10 11 12 13 14 15 16 17 18 19 20 21 22 23 24 25 26 27 28 29 30 31 32 33 34 35 36 37 38 39 40 41 42 43 44 45 46 47 48 49 50

000
ASUS41 KCTP 011903
RWRCTP

REGIONAL WEATHER ROUNDUP
NATIONAL WEATHER SERVICE STATE COLLEGE PA
200 PM EST SUN MAR 01 2015

Note: "fair" indicates few or no clouds below 12,000 feet with no
significant weather and/or obstructions to visibility.

* = STATION THAT DOES NOT REPORT PRECIPITATION /E.G. RAIN...SNOW...ETC/
    THUNDER OR FOG.

PAZ002>004-007>009-013>016-020>023-029>032-012000-
WESTERN PENNSYLVANIA

CITY           SKY/WX    TMP DP  RH WIND       PRES   REMARKS
ERIE           LGT SNOW  28  24  85 W7        30.26F VSB 3/4
MEADVILLE      LGT SNOW  29  25  85 SW5       30.21F
FRANKLIN*      CLOUDY    30  27  86 SW7       30.22F
NEW CASTLE     LGT SNOW  34  32  92 CALM      30.25F FOG
BEAVER COUNTY  LGT SNOW  34  32  93 S6        30.24F
BUTLER*        CLOUDY    34  30  86 SW8       30.26F VSB 1
PITTSBURGH INT SNOW      33  32  96 S6        30.25F VSB 1/2
PITTSBURGH     SNOW      33  29  85 S12       30.25F VSB 1/2
INDIANA*       FOG       34  34 100 SW6       30.29F VSB 1/2
LATROBE        LGT SNOW  32  32 100 SW12      30.28F
WASHINGTON CO* CLOUDY    34  32  93 S7        30.28F
$$

PAZ004>006-010>012-017>019-024>028-033>037-041-042-045-046-049>053-012000-
CENTRAL PENNSYLVANIA

CITY           SKY/WX    TMP DP  RH WIND       PRES   REMARKS
BRADFORD       SNOW      29  24  82 SW8       30.18F VSB 1/2
DUBOIS         SNOW      33  31  92 SW10      30.20F VSB 1/2
CLEARFIELD     LGT SNOW  27  24  89 N3        30.25F VSB 3/4
JOHNSTOWN      LGT SNOW  33  31  92 SW13      30.21F VSB 3/4
ALTOONA        LGT SNOW  27  24  89 SW5       30.29F VSB 1
STATE COLLEGE  LGT SNOW  27  23  86 SW7       30.31F VSB 1
WILLIAMSPORT   LGT SNOW  24  18  77 VRB6      30.37F
SELINSGROVE    LGT SNOW  25  22  88 S9        30.40F VSB 1
FT INDIANTOWN  LGT SNOW  23  21  93 SE3       30.43F FOG
CAPITAL CITY   SNOW      25  22  88 E6        30.42F VSB 1/2
HARRISBURG     LGT SNOW  26  22  84 SE5       30.42F VSB 3/4
YORK           MIX PCPN  27  23  85 CALM      30.41F FOG
$$

PAZ038>040-043-044-047-048-054-055-060>062-067>071-012000-
EASTERN PENNSYLVANIA

CITY           SKY/WX    TMP DP  RH WIND       PRES   REMARKS
SCRANTON       LGT SNOW  24  17  74 S6        30.36F VSB 1
MOUNT POCONO   LGT SNOW  18  14  84 S9        30.31F VSB 1   WCI   7
ALLENTOWN      SNOW      24  19  81 CALM      30.46F VSB 1/2
QUAKERTOWN*    CLOUDY    23  21  93 S3        30.46F VSB 1/2
READING        LGT SNOW  24  20  84 SE3       30.44F VSB 1
LANCASTER      MIX PCPN  24  21  88 SE7       30.43F FOG
COATESVILLE    LGT SNOW  25  25 100 CALM      30.43F
POTTSTOWN      LGT SNOW  24  22  91 CALM      30.47F FOG
BLUE BELL      CLOUDY    28  23  80 CALM      30.46F
DOYLESTOWN     LGT SNOW  22  20  92 S5        30.45F FOG
WILLOW GROVE   NOT AVBL
NORTH PHILA    MIX PCPN  27  20  75 CALM      30.50F
PHILADELPHIA   SLEET     28  24  85 CALM      30.49F FOG
$$


USA.gov is the U.S. government's official web portal to all federal, state and local government web resources and services.